| time (UTC) | temp F | wind direction | speed knots | gust knots | rain 1hr in | rain 24hr in | rain mn in | humidity % | barometer mb |
| 20260505192055 | 80 | 98 | 5.2 | 11.3 | 0.00 | 0.80 | 0.00 | 83 | 1010.3 |
| 20260505191559 | 80 | 85 | 4.3 | 11.3 | 0.00 | 0.80 | 0.00 | 83 | 1010.3 |
| 20260505191056 | 24 | 103 | 4.3 | 12.2 | 0.00 | 0.80 | 0.00 | 1010.3 | |
| 20260505190555 | 80 | 111 | 5.2 | 12.2 | 0.00 | 0.80 | 0.00 | 1010.3 | |
| 20260505190056 | 24 | 360 | 5.2 | 10.4 | 0.00 | 0.80 | 0.00 | 1010.2 | |
| 20260505185557 | 80 | 91 | 7.8 | 10.4 | 0.00 | 0.80 | 0.00 | 83 | 1010.2 |
| 20260505185056 | 80 | 57 | 5.2 | 9.6 | 0.00 | 0.80 | 0.00 | 84 | 1010.2 |
| 20260505184602 | 80 | 94 | 6.1 | 8.7 | 0.00 | 0.80 | 0.00 | 84 | 1010.1 |
| 20260505184056 | 80 | 61 | 6.1 | 13.0 | 0.00 | 0.80 | 0.00 | 84 | 1010.1 |
| 20260505183555 | 23 | 65 | 5.2 | 13.0 | 0.00 | 0.80 | 0.00 | 1010.1 | |
| 20260505183057 | 23 | 81 | 8.7 | 13.0 | 0.00 | 0.80 | 0.00 | 1009.9 | |
| 20260505182557 | 23 | 111 | 5.2 | 10.4 | 0.00 | 0.80 | 0.00 | 1009.8 | |
| 20260505182059 | 80 | 86 | 5.2 | 11.3 | 0.00 | 0.80 | 0.00 | 85 | 1009.8 |
| 20260505181600 | 80 | 65 | 7.0 | 11.3 | 0.00 | 0.80 | 0.00 | 85 | 1009.7 |
| 20260505181058 | 80 | 78 | 5.2 | 10.4 | 0.00 | 0.80 | 0.00 | 1009.7 | |
| 20260505180557 | 22 | 90 | 6.1 | 13.9 | 0.00 | 0.80 | 0.00 | 1009.7 | |
| 20260505175558 | 80 | 79 | 5.2 | 13.0 | 0.00 | 0.80 | 0.00 | 85 | 1009.7 |
| 20260505175100 | 21 | 101 | 7.8 | 13.0 | 0.00 | 0.80 | 0.00 | 1009.6 | |
| 20260505174613 | 80 | 96 | 6.1 | 13.0 | 0.00 | 0.80 | 0.00 | 84 | 1009.7 |
| 20260505174056 | 21 | 112 | 6.1 | 15.6 | 0.00 | 0.80 | 0.00 | 1009.7 | |
| 20260505173556 | 21 | 69 | 7.8 | 15.6 | 0.00 | 0.80 | 0.00 | 1009.7 | |
| 20260505173159 | 20 | 86 | 5.2 | 13.9 | 0.00 | 0.80 | 0.00 | 1009.7 | |
| 20260505172601 | 80 | 360 | 6.1 | 13.9 | 0.00 | 0.80 | 0.00 | 85 | 1009.7 |
| 20260505172057 | 79 | 80 | 7.0 | 13.0 | 0.00 | 0.80 | 0.00 | 85 | 1009.8 |
| 20260505171557 | 79 | 113 | 5.2 | 10.4 | 0.00 | 0.80 | 0.00 | 85 | 1009.7 |
| 20260505171100 | 79 | 107 | 4.3 | 12.2 | 0.00 | 0.80 | 0.00 | 85 | 1009.9 |
| 20260505170557 | 79 | 87 | 5.2 | 12.2 | 0.00 | 0.80 | 0.00 | 85 | 1009.9 |
| 20260505170136 | 79 | 67 | 3.5 | 10.4 | 0.00 | 0.80 | 0.00 | 85 | 1009.9 |
| 20260505165557 | 19 | 80 | 5.2 | 12.2 | 0.00 | 0.80 | 0.00 | 100 | 1010.0 |
| 20260505165055 | 19 | 102 | 4.3 | 12.2 | 0.00 | 0.80 | 0.00 | 1010.1 | |
| 20260505164555 | 79 | 96 | 5.2 | 11.3 | 0.00 | 0.80 | 0.00 | 85 | 1010.2 |
| 20260505164059 | 79 | 86 | 6.1 | 11.3 | 0.00 | 0.80 | 0.00 | 1010.2 | |
| 20260505163556 | 79 | 103 | 5.2 | 11.3 | 0.00 | 0.80 | 0.00 | 1010.3 | |
| 20260505163059 | 18 | 61 | 4.3 | 11.3 | 0.00 | 0.80 | 0.00 | 1010.4 | |
| 20260505162555 | 18 | 71 | 7.0 | 12.2 | 0.00 | 0.80 | 0.00 | 85 | 1010.4 |
| 20260505162056 | 79 | 94 | 6.1 | 13.9 | 0.00 | 0.80 | 0.00 | 1010.4 | |
| 20260505161604 | 78 | 70 | 7.8 | 13.9 | 0.00 | 0.80 | 0.00 | 85 | 1010.5 |
| 20260505161056 | 78 | 85 | 7.8 | 13.0 | 0.00 | 0.80 | 0.00 | 85 | 1010.7 |
| 20260505160559 | 16 | 71 | 7.0 | 13.0 | 0.00 | 0.80 | 0.00 | 100 | 1010.7 |
| 20260505153100 | 78 | 73 | 8.7 | 13.0 | 0.00 | 0.80 | 0.00 | 85 | 1011.1 |
| 20260505152556 | 78 | 34 | 7.8 | 17.4 | 0.00 | 0.80 | 0.00 | 85 | 1011.0 |
| 20260505152056 | 78 | 91 | 8.7 | 19.1 | 0.00 | 0.80 | 0.00 | 85 | 1011.1 |
| 20260505151558 | 78 | 54 | 11.3 | 20.9 | 0.00 | 0.80 | 0.00 | 86 | 1011.1 |
| 20260505151056 | 78 | 66 | 11.3 | 20.9 | 0.00 | 0.80 | 0.00 | 86 | 1011.1 |
| 20260505150557 | 78 | 89 | 8.7 | 17.4 | 0.00 | 0.80 | 0.00 | 86 | 1011.0 |
| 20260505140556 | 78 | 94 | 4.3 | 12.2 | 0.03 | 0.80 | 0.00 | 89 | 1011.4 |
| 20260505124600 | -13 | 98 | 10.4 | 25.2 | 0.52 | 0.65 | 0.65 | 1012.4 | |
| 20260505124100 | -20 | 152 | 10.4 | 25.2 | 0.42 | 0.54 | 0.54 | 1012.5 | |
| 20260505123603 | 78 | 98 | 7.8 | 15.6 | 0.32 | 0.42 | 0.42 | 1012.4 | |
| 20260505123114 | -43 | 71 | 8.7 | 17.4 | 0.28 | 0.38 | 0.38 | 1012.4 | |
| 20260505122556 | 77 | 78 | 6.1 | 21.7 | 0.22 | 0.32 | 0.32 | 89 | 1012.3 |
| 20260505122100 | 77 | 76 | 11.3 | 21.7 | 0.17 | 0.27 | 0.27 | 89 | 1012.1 |
| 20260505121601 | 77 | 77 | 11.3 | 21.7 | 0.14 | 0.24 | 0.24 | 88 | 1012.1 |
| 20260505121058 | 77 | 115 | 11.3 | 21.7 | 0.13 | 0.23 | 0.23 | 88 | 1012.2 |
| 20260505120557 | 77 | 86 | 7.8 | 17.4 | 0.13 | 0.23 | 0.23 | 88 | 1012.4 |
| 20260505120100 | 77 | 64 | 10.4 | 17.4 | 0.12 | 0.21 | 0.21 | 88 | 1012.4 |
| 20260505115601 | 78 | 87 | 7.0 | 14.8 | 0.08 | 0.17 | 0.17 | 88 | 1012.4 |
| 20260505115059 | 78 | 72 | 6.1 | 17.4 | 0.04 | 0.13 | 0.13 | 87 | 1012.3 |
| 20260505114614 | 78 | 90 | 8.7 | 17.4 | 0.03 | 0.12 | 0.12 | 87 | 1012.1 |
| 20260505114057 | 78 | 63 | 8.7 | 17.4 | 0.05 | 0.12 | 0.12 | 87 | 1012.2 |
| 20260505113603 | 79 | 93 | 7.8 | 17.4 | 0.06 | 0.10 | 0.10 | 87 | 1012.1 |
| 20260505113058 | 79 | 82 | 4.3 | 12.2 | 0.06 | 0.10 | 0.10 | 87 | 1012.0 |
| 20260505112603 | 79 | 96 | 5.2 | 14.8 | 0.06 | 0.10 | 0.10 | 87 | 1012.0 |
| 20260505112059 | 79 | 93 | 6.1 | 14.8 | 0.06 | 0.10 | 0.10 | 87 | 1012.0 |
| 20260505111609 | 79 | 90 | 8.7 | 18.2 | 0.06 | 0.10 | 0.10 | 87 | 1011.8 |
| 20260505111056 | 79 | 113 | 9.6 | 18.2 | 0.06 | 0.10 | 0.10 | 87 | 1011.8 |
| 20260505110556 | 79 | 87 | 10.4 | 17.4 | 0.07 | 0.10 | 0.10 | 87 | 1011.7 |
| 20260505110119 | 79 | 92 | 5.2 | 13.0 | 0.06 | 0.09 | 0.09 | 87 | 1011.6 |
| 20260505102056 | 78 | 78 | 8.7 | 15.6 | 0.01 | 0.04 | 0.04 | 87 | 1011.4 |
| 20260505101555 | 78 | 91 | 7.8 | 19.1 | 0.01 | 0.04 | 0.04 | 86 | 1011.3 |
| 20260505101057 | 78 | 101 | 9.6 | 23.5 | 0.01 | 0.04 | 0.04 | 85 | 1011.3 |
| 20260505100556 | 79 | 101 | 13.0 | 23.5 | 0.00 | 0.03 | 0.03 | 84 | 1011.3 |
| 20260505100055 | 80 | 89 | 8.7 | 15.6 | 0.00 | 0.03 | 0.03 | 85 | 1011.2 |
| 20260505095556 | 80 | 81 | 7.0 | 14.8 | 0.00 | 0.03 | 0.03 | 85 | 1011.0 |
| 20260505095057 | 80 | 360 | 6.1 | 15.6 | 0.00 | 0.03 | 0.03 | 85 | 1011.1 |
| 20260505094556 | 80 | 88 | 8.7 | 15.6 | 0.00 | 0.03 | 0.03 | 85 | 1011.0 |
| 20260505094056 | 80 | 73 | 7.8 | 13.9 | 0.00 | 0.03 | 0.03 | 86 | 1011.0 |
| 20260505093600 | 80 | 45 | 8.7 | 13.9 | 0.01 | 0.03 | 0.03 | 86 | 1011.0 |
| 20260505093057 | 80 | 100 | 8.7 | 14.8 | 0.02 | 0.03 | 0.03 | 86 | 1010.9 |
| 20260505092556 | 79 | 79 | 8.7 | 14.8 | 0.02 | 0.03 | 0.03 | 86 | 1010.8 |
| 20260505092056 | 79 | 113 | 6.1 | 14.8 | 0.02 | 0.03 | 0.03 | 85 | 1010.9 |
| 20260505091557 | 79 | 80 | 7.8 | 14.8 | 0.02 | 0.03 | 0.03 | 85 | 1010.8 |
| 20260505091055 | 79 | 63 | 7.8 | 14.8 | 0.02 | 0.03 | 0.03 | 85 | 1010.8 |
| 20260505090555 | 79 | 71 | 7.0 | 18.2 | 0.03 | 0.03 | 0.03 | 85 | 1010.8 |
| 20260505090101 | 80 | 117 | 5.2 | 18.2 | 0.03 | 0.03 | 0.03 | 85 | 1010.8 |
| 20260505085556 | 80 | 86 | 11.3 | 18.2 | 0.03 | 0.03 | 0.03 | 84 | 1010.9 |
| 20260505085057 | 80 | 74 | 8.7 | 13.9 | 0.03 | 0.03 | 0.03 | 85 | 1010.7 |
| 20260505084557 | 80 | 58 | 7.0 | 13.0 | 0.03 | 0.03 | 0.03 | 85 | 1010.5 |
| 20260505084055 | 80 | 86 | 6.1 | 15.6 | 0.03 | 0.03 | 0.03 | 85 | 1010.4 |
| 20260505083557 | 80 | 79 | 8.7 | 15.6 | 0.02 | 0.02 | 0.02 | 85 | 1010.4 |
| 20260505083108 | 80 | 90 | 7.0 | 13.9 | 0.01 | 0.01 | 0.01 | 84 | 1010.4 |
| 20260505082556 | 80 | 124 | 7.8 | 13.9 | 0.01 | 0.01 | 0.01 | 84 | 1010.3 |
| 20260505082056 | 80 | 80 | 6.1 | 14.8 | 0.01 | 0.01 | 0.01 | 84 | 1010.3 |
| 20260505081557 | 80 | 87 | 8.7 | 20.0 | 0.01 | 0.01 | 0.01 | 84 | 1010.1 |
| 20260505081057 | 79 | 108 | 7.8 | 20.0 | 0.01 | 0.01 | 0.01 | 84 | 1010.1 |
| 20260505080556 | 80 | 76 | 12.2 | 22.6 | 0.00 | 0.00 | 0.00 | 83 | 1010.2 |
| 20260505080056 | 80 | 94 | 9.6 | 22.6 | 0.00 | 0.00 | 0.00 | 82 | 1010.1 |
| 20260505075556 | 81 | 84 | 13.9 | 22.6 | 0.00 | 0.00 | 0.00 | 81 | 1010.1 |
| 20260505075056 | 82 | 74 | 7.8 | 16.5 | 0.00 | 0.00 | 0.00 | 81 | 1010.0 |
| 20260505074559 | 82 | 94 | 8.7 | 16.5 | 0.00 | 0.00 | 0.00 | 81 | 1009.8 |
| 20260505074056 | 82 | 83 | 8.7 | 21.7 | 0.00 | 0.00 | 0.00 | 80 | 1009.7 |
| 20260505073559 | 82 | 67 | 9.6 | 21.7 | 0.00 | 0.00 | 0.00 | 78 | 1009.7 |
| 20260505073105 | 84 | 65 | 12.2 | 21.7 | 0.00 | 0.00 | 0.00 | 75 | 1009.8 |
| 20260505072557 | 84 | 104 | 12.2 | 20.0 | 0.00 | 0.00 | 0.00 | 73 | 1009.6 |
| 20260505072059 | 84 | 92 | 13.9 | 19.1 | 0.00 | 0.00 | 0.00 | 72 | 1009.5 |
| 20260505071601 | 85 | 91 | 12.2 | 19.1 | 0.00 | 0.00 | 0.00 | 72 | 1009.5 |
| 20260505071059 | 85 | 88 | 11.3 | 17.4 | 0.00 | 0.00 | 0.00 | 72 | 1009.5 |
| 20260505070559 | 85 | 76 | 10.4 | 17.4 | 0.00 | 0.00 | 0.00 | 73 | 1009.6 |
| 20260505070059 | 85 | 85 | 7.8 | 16.5 | 0.00 | 0.00 | 0.00 | 73 | 1009.7 |
| 20260505065558 | 86 | 89 | 8.7 | 16.5 | 0.00 | 0.00 | 0.00 | 73 | 1009.6 |
| 20260505065101 | 85 | 89 | 9.6 | 22.6 | 0.00 | 0.00 | 0.00 | 73 | 1009.6 |
| 20260505064604 | 85 | 81 | 13.0 | 22.6 | 0.00 | 0.00 | 0.00 | 73 | 1009.6 |
| 20260505064058 | 85 | 69 | 11.3 | 21.7 | 0.00 | 0.00 | 0.00 | 73 | 1009.6 |
| 20260505063558 | 85 | 91 | 12.2 | 21.7 | 0.00 | 0.00 | 0.00 | 74 | 1009.6 |
| 20260505063057 | 85 | 80 | 13.9 | 21.7 | 0.00 | 0.00 | 0.00 | 74 | 1009.6 |
| 20260505062559 | 84 | 54 | 11.3 | 23.5 | 0.00 | 0.00 | 0.00 | 75 | 1009.6 |
| 20260505062100 | 83 | 83 | 11.3 | 26.1 | 0.00 | 0.00 | 0.00 | 75 | 1009.5 |
| 20260505061557 | 84 | 80 | 13.9 | 26.1 | 0.00 | 0.00 | 0.00 | 73 | 1009.5 |
| 20260505061057 | 86 | 72 | 10.4 | 20.0 | 0.00 | 0.00 | 0.00 | 71 | 1009.6 |
| 20260505060557 | 86 | 71 | 12.2 | 20.0 | 0.00 | 0.00 | 0.00 | 71 | 1009.6 |
| 20260505060103 | 86 | 78 | 10.4 | 20.0 | 0.00 | 0.00 | 0.00 | 70 | 1009.5 |
| 20260505055558 | 86 | 80 | 11.3 | 20.0 | 0.00 | 0.00 | 0.00 | 70 | 1009.6 |
| 20260505055101 | 86 | 84 | 12.2 | 20.9 | 0.00 | 0.00 | 0.00 | 68 | 1009.7 |
| 20260505054604 | 87 | 59 | 11.3 | 22.6 | 0.00 | 0.00 | 0.00 | 70 | 1009.7 |
| 20260505054059 | 86 | 83 | 13.9 | 22.6 | 0.00 | 0.00 | 0.00 | 68 | 1009.7 |
| 20260505053557 | 87 | 55 | 10.4 | 18.2 | 0.00 | 0.00 | 0.00 | 69 | 1009.7 |
| 20260505053111 | 86 | 72 | 10.4 | 18.2 | 0.00 | 0.00 | 0.00 | 69 | 1009.7 |
| 20260505052559 | 87 | 46 | 10.4 | 18.2 | 0.00 | 0.00 | 0.00 | 69 | 1009.6 |
| 20260505052058 | 87 | 78 | 10.4 | 19.1 | 0.00 | 0.00 | 0.00 | 69 | 1009.6 |
| 20260505051600 | 87 | 90 | 10.4 | 21.7 | 0.00 | 0.00 | 0.00 | 68 | 1009.6 |
| 20260505051059 | 87 | 84 | 12.2 | 21.7 | 0.00 | 0.00 | 0.00 | 68 | 1009.6 |
| 20260505050557 | 87 | 87 | 12.2 | 18.2 | 0.00 | 0.00 | 0.00 | 68 | 1009.6 |
| 20260505041615 | 87 | 83 | 14.8 | 24.3 | 0.00 | 0.00 | 0.00 | 67 | 1009.6 |
| 20260505041058 | 87 | 81 | 10.4 | 24.3 | 0.00 | 0.00 | 0.00 | 67 | 1009.6 |
| 20260505040600 | 87 | 28 | 13.0 | 20.0 | 0.00 | 0.00 | 0.00 | 68 | 1009.6 |
| 20260505040106 | 88 | 43 | 10.4 | 20.9 | 0.00 | 0.00 | 0.00 | 67 | 1009.7 |
| 20260505035556 | 88 | 102 | 11.3 | 20.9 | 0.00 | 0.00 | 0.00 | 67 | 1009.7 |
| 20260505035059 | 88 | 107 | 12.2 | 20.0 | 0.00 | 0.00 | 0.00 | 67 | 1009.8 |
| 20260505034607 | 88 | 44 | 7.8 | 20.0 | 0.00 | 0.00 | 0.00 | 67 | 1009.8 |
| 20260505034057 | 87 | 81 | 10.4 | 20.0 | 0.00 | 0.00 | 0.00 | 68 | 1009.7 |
| 20260505033559 | 87 | 51 | 12.2 | 20.0 | 0.00 | 0.00 | 0.00 | 66 | 1009.8 |
| 20260505033059 | 88 | 72 | 11.3 | 22.6 | 0.00 | 0.00 | 0.00 | 67 | 1009.9 |
| 20260505032559 | 87 | 109 | 12.2 | 22.6 | 0.00 | 0.00 | 0.00 | 67 | 1010.0 |
| 20260505032102 | 87 | 74 | 14.8 | 22.6 | 0.00 | 0.00 | 0.00 | 67 | 1010.0 |
| 20260505031606 | 86 | 89 | 11.3 | 20.0 | 0.00 | 0.00 | 0.00 | 70 | 1010.0 |
| 20260505031101 | 86 | 69 | 11.3 | 18.2 | 0.00 | 0.00 | 0.00 | 69 | 1010.1 |
| 20260505030600 | 87 | 61 | 9.6 | 16.5 | 0.00 | 0.00 | 0.00 | 68 | 1010.2 |
| 20260505030100 | 88 | 74 | 10.4 | 17.4 | 0.00 | 0.00 | 0.00 | 64 | 1010.3 |
| 20260505025558 | 88 | 67 | 10.4 | 17.4 | 0.00 | 0.00 | 0.00 | 66 | 1010.2 |
| 20260505025059 | 88 | 82 | 10.4 | 22.6 | 0.00 | 0.00 | 0.00 | 66 | 1010.3 |
| 20260505024558 | 87 | 86 | 13.0 | 22.6 | 0.00 | 0.00 | 0.00 | 68 | 1010.4 |
| 20260505024059 | 87 | 82 | 10.4 | 20.0 | 0.00 | 0.00 | 0.00 | 69 | 1010.4 |
| 20260505023556 | 87 | 55 | 11.3 | 20.0 | 0.00 | 0.00 | 0.00 | 69 | 1010.4 |
| 20260505023104 | 88 | 74 | 10.4 | 18.2 | 0.00 | 0.00 | 0.00 | 69 | 1010.7 |
| 20260505022556 | 88 | 96 | 11.3 | 18.2 | 0.00 | 0.00 | 0.00 | 67 | 1010.7 |
| 20260505022057 | 88 | 107 | 11.3 | 18.2 | 0.00 | 0.00 | 0.00 | 66 | 1010.8 |
| 20260505021559 | 88 | 55 | 11.3 | 18.2 | 0.00 | 0.00 | 0.00 | 65 | 1010.9 |
| 20260505021059 | 88 | 96 | 11.3 | 19.1 | 0.00 | 0.00 | 0.00 | 65 | 1011.0 |
| 20260505020557 | 87 | 69 | 11.3 | 19.1 | 0.00 | 0.00 | 0.00 | 66 | 1011.1 |
| 20260505020058 | 88 | 51 | 11.3 | 19.1 | 0.00 | 0.00 | 0.00 | 67 | 1011.1 |
| 20260505015559 | 88 | 108 | 8.7 | 19.1 | 0.00 | 0.00 | 0.00 | 66 | 1011.0 |
| 20260505015102 | 87 | 77 | 11.3 | 19.1 | 0.00 | 0.00 | 0.00 | 67 | 1011.1 |
| 20260505014557 | 87 | 74 | 13.0 | 20.0 | 0.00 | 0.00 | 0.00 | 67 | 1011.1 |
| 20260505014058 | 88 | 44 | 10.4 | 20.0 | 0.00 | 0.00 | 0.00 | 66 | 1011.1 |
| 20260505013556 | 88 | 91 | 10.4 | 20.9 | 0.00 | 0.00 | 0.00 | 67 | 1011.1 |
| 20260505013100 | 87 | 81 | 7.8 | 20.9 | 0.00 | 0.00 | 0.00 | 68 | 1011.2 |
| 20260505012557 | 87 | 360 | 14.8 | 20.9 | 0.00 | 0.00 | 0.00 | 68 | 1011.3 |
| 20260505012057 | 87 | 62 | 11.3 | 17.4 | 0.00 | 0.00 | 0.00 | 69 | 1011.4 |
| 20260505011558 | 86 | 67 | 12.2 | 17.4 | 0.00 | 0.00 | 0.00 | 69 | 1011.4 |
| 20260505011100 | 86 | 100 | 8.7 | 17.4 | 0.00 | 0.00 | 0.00 | 70 | 1011.4 |
| 20260505010557 | 87 | 75 | 8.7 | 20.0 | 0.00 | 0.00 | 0.00 | 69 | 1011.5 |
| 20260505010057 | 87 | 86 | 12.2 | 20.0 | 0.00 | 0.00 | 0.00 | 69 | 1011.5 |
| 20260505005557 | 87 | 81 | 13.0 | 20.9 | 0.00 | 0.00 | 0.00 | 68 | 1011.6 |
| 20260505005057 | 87 | 80 | 9.6 | 20.9 | 0.00 | 0.00 | 0.00 | 68 | 1011.7 |
| 20260505004559 | 86 | 109 | 12.2 | 20.9 | 0.00 | 0.00 | 0.00 | 68 | 1011.8 |
| 20260505004057 | -61 | 69 | 9.6 | 20.9 | 0.00 | 0.00 | 0.00 | 70 | 1011.7 |
| 20260505003557 | 87 | 59 | 11.3 | 20.0 | 0.00 | 0.00 | 0.00 | 69 | 1011.7 |
| 20260505003058 | 87 | 72 | 11.3 | 20.0 | 0.00 | 0.00 | 0.00 | 68 | 1011.8 |
| 20260505002557 | 87 | 51 | 9.6 | 20.0 | 0.00 | 0.00 | 0.00 | 67 | 1011.9 |
| 20260505002057 | 87 | 92 | 12.2 | 20.0 | 0.00 | 0.00 | 0.00 | 67 | 1011.9 |
| 20260505001558 | 87 | 96 | 9.6 | 20.0 | 0.00 | 0.00 | 0.00 | 68 | 1012.0 |
| 20260505001056 | 87 | 72 | 10.4 | 21.7 | 0.00 | 0.00 | 0.00 | 69 | 1012.1 |
| 20260505000558 | 86 | 352 | 11.3 | 21.7 | 0.00 | 0.00 | 0.00 | 69 | 1012.1 |
| 20260505000108 | 86 | 82 | 13.0 | 21.7 | 0.00 | 0.00 | 0.00 | 69 | 1012.1 |
| 20260504235555 | 86 | 70 | 11.3 | 19.1 | 0.00 | 0.00 | 0.00 | 69 | 1012.2 |
| 20260504235055 | 86 | 79 | 11.3 | 19.1 | 0.00 | 0.00 | 0.00 | 68 | 1012.2 |
| 20260504234622 | 87 | 82 | 9.6 | 18.2 | 0.00 | 0.00 | 0.00 | 68 | 1012.3 |
| 20260504234054 | 86 | 80 | 9.6 | 21.7 | 0.00 | 0.00 | 0.00 | 69 | 1012.2 |
| 20260504233554 | 86 | 83 | 9.6 | 21.7 | 0.00 | 0.00 | 0.00 | 70 | 1012.3 |
| 20260504233058 | 86 | 75 | 11.3 | 20.0 | 0.00 | 0.00 | 0.00 | 70 | 1012.3 |
| 20260504232555 | 86 | 87 | 10.4 | 21.7 | 0.00 | 0.00 | 0.00 | 70 | 1012.3 |
| 20260504232057 | 86 | 81 | 12.2 | 21.7 | 0.00 | 0.00 | 0.00 | 70 | 1012.3 |
| 20260504231603 | 85 | 82 | 11.3 | 21.7 | 0.00 | 0.00 | 0.00 | 69 | 1012.2 |
| 20260504231057 | 85 | 80 | 9.6 | 20.0 | 0.00 | 0.00 | 0.00 | 70 | 1012.2 |
| 20260504230600 | -61 | 99 | 10.4 | 20.0 | 0.00 | 0.00 | 0.00 | 69 | 1012.2 |
| 20260504230058 | 85 | 67 | 9.6 | 20.0 | 0.00 | 0.00 | 0.00 | 70 | 1012.3 |
| 20260504225557 | -61 | 65 | 11.3 | 20.0 | 0.00 | 0.00 | 0.00 | 1012.3 | |
| 20260504225056 | 85 | 66 | 10.4 | 17.4 | 0.00 | 0.00 | 0.00 | 71 | 1012.2 |
| 20260504224556 | 85 | 115 | 10.4 | 16.5 | 0.00 | 0.00 | 0.00 | 72 | 1012.3 |
| 20260504224102 | 85 | 110 | 10.4 | 16.5 | 0.00 | 0.00 | 0.00 | 72 | 1012.3 |
| 20260504223558 | 84 | 103 | 11.3 | 14.8 | 0.00 | 0.00 | 0.00 | 72 | 1012.3 |
| 20260504223058 | 85 | 98 | 9.6 | 14.8 | 0.00 | 0.00 | 0.00 | 73 | 1012.3 |
| 20260504222602 | 85 | 59 | 6.1 | 13.0 | 0.00 | 0.00 | 0.00 | 73 | 1012.3 |
| 20260504222057 | 85 | 57 | 8.7 | 16.5 | 0.00 | 0.00 | 0.00 | 74 | 1012.2 |
| 20260504221609 | 85 | 63 | 9.6 | 18.2 | 0.00 | 0.00 | 0.00 | 74 | 1012.3 |
| 20260504221057 | 84 | 44 | 8.7 | 19.1 | 0.00 | 0.00 | 0.00 | 73 | 1012.1 |
| 20260504220557 | 84 | 91 | 10.4 | 19.1 | 0.00 | 0.00 | 0.00 | 73 | 1012.1 |
| 20260504220059 | 84 | 67 | 11.3 | 19.1 | 0.00 | 0.00 | 0.00 | 73 | 1012.2 |
| 20260504215557 | 84 | 67 | 9.6 | 15.6 | 0.00 | 0.00 | 0.00 | 72 | 1012.1 |
| 20260504215055 | 84 | 94 | 8.7 | 15.6 | 0.00 | 0.00 | 0.00 | 73 | 1012.1 |
| 20260504214600 | 84 | 65 | 7.0 | 13.0 | 0.00 | 0.00 | 0.00 | 73 | 1012.0 |
| 20260504214057 | 84 | 76 | 5.2 | 15.6 | 0.00 | 0.00 | 0.00 | 73 | 1012.0 |
| 20260504213555 | 84 | 101 | 8.7 | 15.6 | 0.00 | 0.00 | 0.00 | 74 | 1011.9 |
| 20260504213058 | 83 | 69 | 8.7 | 13.9 | 0.00 | 0.00 | 0.00 | 74 | 1011.9 |
| 20260504212557 | 83 | 122 | 7.0 | 13.0 | 0.00 | 0.00 | 0.00 | 75 | 1011.8 |
| 20260504212055 | 83 | 89 | 7.0 | 13.0 | 0.00 | 0.00 | 0.00 | 76 | 1011.9 |
| 20260504211558 | 83 | 57 | 7.0 | 13.9 | 0.00 | 0.00 | 0.00 | 76 | 1011.9 |
| 20260504211058 | 83 | 92 | 8.7 | 15.6 | 0.00 | 0.00 | 0.00 | 76 | 1011.9 |
| 20260504210555 | 82 | 76 | 6.1 | 15.6 | 0.00 | 0.00 | 0.00 | 77 | 1011.9 |
| 20260504210110 | 82 | 106 | 4.3 | 13.0 | 0.00 | 0.00 | 0.00 | 77 | 1011.8 |
| 20260504205557 | 82 | 68 | 8.7 | 13.0 | 0.00 | 0.00 | 0.00 | 77 | 1011.7 |
| 20260504205058 | 81 | 103 | 7.8 | 13.0 | 0.00 | 0.00 | 0.00 | 77 | 1011.6 |
| 20260504204602 | 81 | 79 | 7.8 | 13.0 | 0.00 | 0.00 | 0.00 | 78 | 1011.6 |
| 20260504204055 | 81 | 76 | 6.1 | 13.9 | 0.00 | 0.00 | 0.00 | 78 | 1011.5 |
| 20260504203557 | 81 | 78 | 7.0 | 14.8 | 0.00 | 0.00 | 0.00 | 78 | 1011.4 |
| 20260504203054 | 81 | 78 | 7.0 | 14.8 | 0.00 | 0.00 | 0.00 | 78 | 1011.4 |
| 20260504202557 | 81 | 78 | 5.2 | 13.9 | 0.00 | 0.00 | 0.00 | 78 | 1011.2 |
| 20260504202059 | 81 | 75 | 7.8 | 19.1 | 0.00 | 0.00 | 0.00 | 79 | 1011.2 |
| 20260504201607 | 81 | 59 | 7.0 | 19.1 | 0.00 | 0.00 | 0.00 | 79 | 1011.2 |
| 20260504201057 | 81 | 94 | 6.1 | 13.9 | 0.00 | 0.00 | 0.00 | 79 | 1011.1 |
| 20260504200555 | 81 | 80 | 7.0 | 14.8 | 0.00 | 0.00 | 0.00 | 79 | 1011.0 |
| 20260504200100 | 81 | 82 | 7.0 | 14.8 | 0.00 | 0.00 | 0.00 | 79 | 1011.0 |
| 20260504195555 | 81 | 65 | 7.8 | 13.9 | 0.00 | 0.00 | 0.00 | 80 | 1011.0 |
| 20260504195058 | 81 | 89 | 7.0 | 13.9 | 0.00 | 0.00 | 0.00 | 80 | 1011.0 |
| 20260504194608 | 81 | 90 | 7.8 | 13.9 | 0.00 | 0.00 | 0.00 | 80 | 1011.0 |
| 20260504194055 | 81 | 83 | 6.1 | 12.2 | 0.00 | 0.00 | 0.00 | 80 | 1010.9 |
| 20260504193555 | 81 | 82 | 7.0 | 12.2 | 0.00 | 0.00 | 0.00 | 80 | 1010.8 |
| 20260504193056 | 81 | 74 | 6.1 | 12.2 | 0.00 | 0.00 | 0.00 | 81 | 1010.8 |
| 20260504192555 | 81 | 48 | 4.3 | 8.7 | 0.00 | 0.00 | 0.00 | 82 | 1010.8 |